Temperature
18 18 18 18 19 19 19 19 19 19 19 19 19 19 19 19 19 19 19 18 18 18 18 18 18 18 19 19 19 19 18 18 18 18 18 18 18 18 18 17 17 17 17
18 18 19 19 18 19 18 18 19 19 19 19 19 19 19 19 19 19 19 18 19 19 19 19 18 18 18 18 19 18 18 18 18 18 18 18 18 18 17 17 17 17 17
18 18 18 19 18 18 19 18 19 19 19 19 19 19 19 19 19 19 19 19 19 19 19 19 18 18 18 18 18 18 18 18 18 18 17 17 17 17 17 17 17 17 17
18 18 18 18 18 18 19 19 19 19 19 19 19 19 19 19 19 19 19 19 19 19 18 18 18 18 18 18 18 18 18 18 18 18 18 17 17 17 17 17 17 17 17
18 18 18 18 18 18 18 19 19 19 19 19 19 19 19 19 19 19 19 19 19 18 18 18 18 18 18 18 18 18 18 18 18 17 17 17 17 17 17 17 17 17 17
18 18 18 18 18 18 18 19 19 19 19 19 19 19 19 19 19 19 18 18 18 18 18 18 18 18 18 18 18 18 18 18 17 18 17 17 17 18 18 17 17 17 17
18 18 18 18 18 18 18 18 19 19 19 19 19 19 19 19 19 18 18 18 18 18 18 18 18 18 18 18 18 18 18 18 17 18 17 17 17 18 18 17 17 17 17
18 18 18 18 18 18 18 18 18 18 18 18 19 19 18 19 19 18 18 18 18 18 18 18 18 18 18 18 18 18 18 18 18 18 18 17 18 18 18 17 17 17 17
18 18 18 18 18 18 18 18 18 18 18 18 18 18 18 18 18 18 18 18 18 18 18 18 18 18 18 18 18 18 18 18 18 18 18 17 18 18 17 17 17 17 17
18 18 18 18 18 18 18 18 18 18 18 18 18 18 18 18 18 18 18 18 18 18 18 18 18 18 18 18 18 18 18 18 18 18 18 17 18 18 17 17 17 17 17
18 18 18 18 18 18 18 18 18 18 18 18 18 18 18 17 17 18 17 18 18 18 18 18 18 18 18 18 18 18 18 18 18 18 18 18 18 18 18 17 17 17 17
18 19 18 18 18 18 18 18 18 18 18 17 17 17 17 17 17 17 18 18 18 18 18 18 18 18 18 18 18 18 18 18 18 18 18 18 18 18 18 18 17 17 17
19 18 19 18 18 18 18 18 18 18 18 17 17 17 18 17 17 18 18 18 18 18 17 17 18 18 18 18 18 18 18 18 18 18 18 18 18 18 18 18 18 17 17
19 18 18 18 18 18 18 18 18 18 18 18 17 17 17 18 18 18 18 17 17 18 17 17 17 17 17 17 18 18 18 18 18 18 18 18 18 18 18 18 18 18 17
19 19 18 18 18 18 18 18 18 18 18 18 18 17 17 18 18 18 18 17 18 18 18 18 17 17 17 17 18 18 18 18 18 18 18 18 18 18 18 18 18 17 17
19 19 18 18 18 18 18 18 18 18 18 18 18 17 17 18 18 18 18 18 18 18 18 18 18 18 18 18 18 18 18 18 18 17 18 18 18 18 18 18 18 18 17
19 19 19 18 18 18 18 18 18 18 18 18 18 18 17 18 18 18 18 18 18 18 18 18 18 18 18 18 18 18 18 18 18 18 18 18 18 18 18 18 18 18 18
19 19 19 19 18 18 18 18 18 18 18 18 18 18 18 18 18 18 18 18 18 18 18 18 18 18 18 18 18 18 18 18 18 18 18 18 18 18 18 18 18 18 18
19 19 19 19 18 18 18 18 18 18 18 18 18 18 18 18 18 18 18 18 18 18 18 18 18 18 18 18 18 18 18 18 18 18 18 18 18 18 18 18 18 18 18
19 19 19 19 18 18 18 18 18 18 18 18 18 18 18 18 18 18 18 18 18 18 18 18 18 18 18 18 18 19 18 18 18 18 18 18 18 18 18 18 18 18 18
19 19 19 19 19 19 18 18 18 18 18 18 18 18 18 18 18 18 18 18 18 18 18 18 18 18 18 18 18 19 19 19 19 18 18 18 18 18 18 18 18 18 18
19 19 19 19 19 19 19 19 18 18 18 18 18 18 18 18 18 18 18 18 18 18 18 18 18 18 18 18 18 19 20 19 19 19 19 18 18 18 18 18 18 18 18
20 19 19 19 19 19 19 18 18 18 18 18 18 18 18 18 18 18 18 18 18 18 18 18 18 18 18 18 18 18 19 20 19 19 19 18 18 18 18 18 18 18 18
20 20 20 20 20 19 19 19 19 18 19 19 18 18 18 18 18 18 18 18 18 18 18 18 18 18 18 18 18 18 18 18 19 19 19 19 18 18 18 18 18 18 18
21 20 20 20 20 20 19 19 19 18 18 18 18 18 18 18 18 18 18 18 18 18 18 18 18 18 18 18 18 18 18 18 18 19 19 19 19 18 18 18 18 18 18
21 21 20 20 20 20 20 19 19 19 19 18 18 18 18 18 18 18 18 18 18 18 18 18 18 18 18 18 18 18 18 18 18 19 19 19 19 19 18 18 18 18 18
Wind_Speed
7 12 15 16 17 17 18 18 19 20 19 19 18 18 18 17 16 16 16 15 15 15 15 15 14 14 14 13 13 13 13 13 13 12 13 13 12 12 12 11 10 13 14
10 14 16 15 16 16 17 17 18 19 19 18 18 17 17 16 16 15 15 15 15 15 15 14 14 13 13 13 12 12 12 12 12 11 12 12 11 11 10 9 8 12 13
11 14 15 15 15 15 15 16 17 17 18 18 17 16 16 15 15 15 14 14 14 14 14 13 13 13 12 12 11 11 11 11 10 9 8 10 11 10 10 11 12 12 12
12 13 14 15 15 15 15 15 16 17 17 17 16 15 15 15 14 14 13 13 14 13 13 12 12 12 11 11 11 10 10 10 8 6 6 9 10 12 11 11 11 11 11
12 13 15 15 15 15 15 15 16 16 16 16 15 15 14 13 13 13 13 13 13 12 12 12 11 11 11 10 10 10 9 8 5 4 8 8 9 11 10 10 10 10 11
12 13 16 15 15 14 14 15 16 16 15 15 14 14 13 13 12 12 12 12 11 11 11 10 10 10 10 9 9 9 8 6 5 6 7 6 9 10 9 9 9 9 10
12 13 16 15 15 14 14 14 15 15 14 14 13 13 12 12 11 11 11 11 10 9 9 9 9 9 8 8 8 7 6 2 2 5 6 7 9 10 8 8 8 8 9
12 12 15 15 14 14 13 13 14 14 14 13 12 12 11 11 10 10 9 9 8 8 8 8 7 7 6 6 6 6 4 3 4 5 5 7 10 8 7 7 7 8 8
11 12 13 15 14 13 13 13 13 13 13 12 12 11 11 10 10 9 8 8 7 6 6 6 6 5 5 4 4 4 3 2 1 4 4 7 10 7 7 7 7 7 7
9 9 10 11 12 12 13 13 13 13 12 11 11 11 10 10 9 8 8 7 6 6 6 5 4 4 3 3 3 3 4 5 2 3 4 8 9 7 6 6 7 7 7
9 8 8 9 9 10 11 14 13 13 11 11 11 10 8 7 8 8 8 6 4 5 5 4 3 2 3 5 4 4 6 3 3 2 3 9 7 6 6 6 6 7 7
10 8 7 7 8 8 9 10 9 9 10 8 7 7 6 5 4 5 8 5 4 5 5 5 4 5 7 4 7 8 3 3 3 3 5 8 6 6 6 7 7 7 8
10 9 8 7 7 7 7 7 6 6 7 7 7 6 5 4 4 4 5 6 5 6 5 6 6 3 2 1 1 2 1 1 2 3 5 8 6 7 7 7 8 8 8
10 9 8 7 7 6 6 6 6 5 5 5 6 5 5 2 2 3 2 3 4 4 2 2 1 1 0 1 1 1 2 2 1 2 5 7 7 7 8 8 9 9 9
10 9 8 7 7 6 5 4 5 4 4 5 4 4 3 3 2 2 2 1 1 2 3 2 1 0 1 2 2 2 2 2 2 3 4 8 8 8 8 9 9 10 10
10 9 9 8 8 7 6 5 5 5 4 4 4 4 3 2 2 2 2 2 1 1 1 1 1 1 2 1 2 2 3 3 3 3 4 7 10 9 9 9 9 10 10
10 9 9 9 8 8 7 6 6 5 5 4 3 4 4 3 2 2 1 2 2 2 2 2 1 2 2 2 2 2 3 3 2 3 4 4 6 11 11 10 10 10 10
10 10 9 9 9 8 7 6 5 5 5 4 4 4 4 3 3 3 2 2 2 2 2 2 3 2 2 2 2 3 2 2 3 3 4 4 4 4 9 11 10 10 10
10 10 10 9 9 9 8 6 6 5 5 5 5 4 4 5 4 5 3 2 4 3 2 3 1 2 2 2 3 3 3 2 2 3 3 4 4 5 5 8 11 11 10
11 10 10 10 9 8 7 6 5 5 6 6 5 4 5 5 5 5 4 4 4 3 2 2 2 3 3 3 4 2 3 3 3 2 3 3 4 5 5 4 6 9 11
12 12 11 10 10 8 7 7 7 6 6 6 6 5 6 5 5 5 4 4 5 3 3 4 3 3 3 2 3 3 3 4 3 3 3 3 3 3 4 4 5 4 6
13 12 12 11 11 10 8 6 5 5 5 5 4 4 6 5 5 6 5 5 4 3 4 3 3 3 2 2 3 3 2 3 4 3 3 3 3 3 3 4 4 4 5
14 14 12 12 12 11 10 7 6 5 5 5 5 5 5 5 5 5 4 5 4 5 3 3 3 4 3 3 3 3 3 2 1 2 2 3 2 3 3 3 4 4 5
15 14 14 13 12 12 11 9 10 8 7 6 5 4 5 5 6 5 5 5 5 5 3 5 3 3 4 4 3 3 4 3 3 2 3 2 3 3 3 3 3 3 4
15 14 14 14 13 13 12 11 10 9 8 6 6 5 5 5 6 6 5 5 5 5 4 4 3 5 4 4 4 3 4 4 5 4 3 3 3 3 3 4 3 3 4
14 14 14 14 14 14 14 13 12 11 9 8 7 6 6 6 6 6 6 5 5 5 4 5 5 6 5 5 5 4 4 4 4 4 5 4 3 3 3 3 4 3 4
Wind_Direction
119 118 119 120 121 122 124 123 123 123 121 118 116 115 112 109 106 103 102 101 100 100 100 99 101 104 104 103 103 104 105 107 108 108 107 107 107 109 112 120 127 112 110
125 120 121 122 121 123 126 126 125 126 123 121 119 117 114 111 107 104 102 100 99 99 100 100 100 102 103 103 104 105 107 109 111 114 118 115 111 112 115 110 89 105 117
126 124 127 125 125 125 126 127 126 126 124 122 120 119 116 113 109 105 101 99 98 98 98 98 98 99 101 102 104 108 112 112 112 126 148 123 114 114 115 110 107 114 117
127 129 129 129 130 130 129 128 128 127 126 124 122 120 117 114 111 106 102 100 98 99 100 100 100 101 102 104 106 109 112 114 123 170 136 109 114 112 118 121 122 123 123
127 129 129 134 132 131 130 128 130 129 128 126 124 120 117 115 112 108 106 102 100 101 102 103 102 101 101 104 106 107 110 119 153 188 100 104 108 114 121 124 128 130 130
131 132 129 134 132 131 130 130 131 129 129 128 125 122 119 117 115 111 108 105 103 104 103 103 103 104 106 108 107 107 113 137 194 112 107 114 112 121 128 130 132 134 139
131 130 131 133 133 132 131 132 132 130 129 128 125 123 119 117 115 113 110 107 105 104 104 102 102 106 109 112 112 112 119 180 134 107 112 110 109 125 133 136 137 138 141
130 129 130 132 133 134 134 132 131 131 130 128 126 123 120 117 116 115 112 109 107 106 107 107 105 104 107 111 118 121 133 246 138 114 110 106 112 131 137 141 142 146 147
130 131 134 140 138 139 138 137 135 133 130 128 125 124 124 122 120 117 115 112 110 108 108 107 105 105 107 111 123 135 142 272 175 124 116 107 120 138 145 149 154 156 158
129 129 133 140 138 145 143 139 136 133 131 131 130 130 132 134 135 132 133 118 117 115 110 109 111 112 120 124 128 151 179 226 164 140 122 113 129 148 157 162 164 167 163
133 135 137 136 139 142 141 139 143 141 141 147 144 146 159 150 139 144 109 113 126 126 123 125 128 134 167 162 156 179 209 197 143 125 107 111 141 161 172 179 179 179 178
145 144 142 140 142 143 141 140 147 148 146 151 142 146 146 132 130 123 123 139 140 142 152 156 170 197 220 171 165 195 194 169 164 145 123 130 163 180 187 193 193 192 192
150 149 152 146 140 137 137 143 142 141 143 149 145 146 138 144 142 139 139 150 159 172 168 162 193 193 173 125 188 175 153 187 156 159 137 150 180 194 200 205 206 205 204
154 156 155 147 145 141 137 138 147 147 144 139 141 156 144 143 148 127 149 152 164 154 149 177 180 151 172 191 203 192 208 224 177 177 145 163 192 207 213 215 216 214 213
161 160 158 153 151 152 152 156 147 149 145 138 137 142 155 167 170 157 152 168 176 141 169 191 203 165 228 219 233 206 225 239 242 228 172 172 196 212 221 225 226 224 223
168 166 162 164 161 163 166 163 158 159 152 147 153 154 177 176 177 191 182 183 197 190 175 217 210 208 242 268 264 262 254 241 225 243 236 185 192 206 219 226 230 230 227
173 173 171 172 168 170 173 174 172 174 165 162 162 173 202 201 187 215 205 213 199 197 200 225 237 253 242 243 262 268 254 249 245 247 250 246 211 200 209 222 229 230 228
178 179 182 181 173 175 181 182 181 180 173 180 187 190 203 209 215 231 223 221 215 226 221 220 234 260 272 275 267 263 257 229 238 237 235 235 243 234 205 207 221 228 229
184 184 186 187 182 182 182 186 188 185 196 202 202 207 201 214 221 235 237 229 233 233 235 252 210 269 266 276 263 238 252 237 238 233 237 237 235 246 247 192 206 220 227
188 188 189 189 188 187 188 192 195 198 205 211 214 215 222 226 227 241 228 222 239 238 240 254 262 254 262 261 273 270 250 235 239 244 247 231 231 239 245 243 220 214 215
190 191 193 193 188 191 195 201 200 201 205 209 214 213 225 235 232 238 252 226 238 235 242 245 249 235 246 259 267 255 223 221 233 232 241 255 239 238 234 228 235 234 212
193 195 195 196 194 197 196 203 208 212 214 216 221 211 226 231 236 231 236 240 232 228 232 244 254 271 270 254 277 281 250 206 214 223 227 232 257 245 233 223 224 222 239
198 198 199 199 198 200 197 199 199 204 220 214 217 219 226 231 236 248 244 254 253 249 233 237 241 246 264 261 259 280 292 289 295 201 232 236 246 256 245 239 229 226 231
200 198 198 198 199 198 198 204 205 210 216 218 222 217 220 227 234 236 240 245 250 257 244 246 232 252 256 265 253 255 275 302 285 272 236 231 236 243 258 259 241 215 224
199 198 196 196 198 198 200 203 209 219 222 221 221 217 230 226 232 237 238 239 240 251 252 260 251 251 250 260 264 253 249 241 250 267 278 277 256 243 246 251 250 241 232
199 199 197 195 199 200 202 206 210 218 223 225 224 222 223 224 226 228 232 236 241 249 244 245 247 238 250 260 268 265 258 256 252 259 267 266 269 262 251 259 253 244 241
Height
1529 1529 1530 1532 1534 1535 1537 1538 1540 1542 1543 1545 1547 1548 1550 1551 1552 1553 1554 1555 1556 1556 1557 1558 1559 1559 1560 1560 1561 1561 1562 1563 1563 1564 1565 1565 1565 1566 1567 1567 1569 1570 1569
1531 1532 1533 1534 1536 1538 1540 1541 1543 1545 1546 1548 1550 1551 1552 1554 1555 1556 1557 1557 1558 1559 1559 1560 1561 1561 1562 1562 1563 1563 1564 1564 1565 1566 1566 1567 1567 1568 1568 1569 1570 1571 1571
1532 1533 1535 1537 1539 1540 1542 1544 1546 1548 1549 1551 1552 1554 1555 1556 1557 1558 1559 1560 1560 1561 1561 1562 1563 1563 1564 1564 1564 1565 1566 1566 1567 1568 1569 1571 1569 1569 1569 1570 1571 1572 1573
1534 1535 1537 1539 1541 1543 1545 1547 1548 1550 1552 1553 1555 1556 1557 1559 1560 1561 1561 1562 1562 1563 1564 1564 1565 1565 1565 1566 1566 1567 1568 1568 1569 1570 1573 1573 1572 1570 1571 1572 1573 1573 1574
1536 1537 1538 1540 1543 1545 1547 1549 1551 1552 1554 1555 1557 1558 1560 1561 1562 1563 1563 1564 1565 1565 1566 1566 1567 1567 1567 1568 1568 1569 1569 1570 1571 1572 1574 1574 1573 1572 1573 1573 1574 1575 1576
1538 1539 1540 1542 1545 1547 1549 1551 1552 1554 1556 1557 1559 1560 1562 1563 1564 1565 1565 1566 1567 1567 1568 1568 1568 1569 1569 1569 1570 1570 1571 1571 1573 1575 1575 1575 1575 1574 1574 1575 1575 1576 1577
1540 1542 1543 1544 1547 1549 1551 1552 1554 1556 1558 1559 1561 1562 1563 1564 1565 1566 1567 1568 1568 1569 1569 1570 1570 1570 1571 1571 1571 1572 1572 1573 1576 1576 1576 1576 1576 1575 1575 1576 1576 1577 1578
1542 1544 1545 1546 1548 1551 1552 1554 1556 1558 1559 1561 1562 1564 1565 1566 1567 1568 1568 1569 1570 1570 1571 1571 1571 1572 1572 1572 1572 1573 1573 1574 1576 1577 1578 1578 1576 1576 1576 1577 1577 1578 1579
1544 1546 1548 1549 1550 1552 1554 1555 1557 1559 1561 1563 1564 1565 1566 1567 1569 1569 1570 1571 1571 1572 1572 1572 1573 1573 1573 1573 1574 1574 1574 1575 1577 1578 1579 1578 1577 1577 1577 1578 1578 1579 1579
1546 1548 1550 1552 1553 1554 1555 1556 1558 1560 1562 1564 1565 1567 1568 1569 1570 1571 1572 1572 1572 1573 1573 1573 1574 1574 1574 1575 1575 1575 1575 1576 1578 1579 1579 1579 1578 1578 1578 1578 1579 1579 1580
1548 1550 1551 1553 1554 1556 1558 1558 1560 1562 1564 1566 1567 1568 1569 1572 1573 1573 1573 1573 1573 1574 1574 1574 1575 1575 1575 1576 1576 1576 1576 1578 1579 1579 1579 1578 1578 1578 1578 1579 1579 1580 1580
1549 1551 1553 1554 1556 1557 1559 1560 1562 1565 1566 1568 1569 1570 1571 1572 1573 1574 1573 1574 1574 1574 1575 1575 1575 1576 1576 1578 1577 1577 1578 1578 1579 1579 1579 1578 1578 1578 1578 1579 1579 1580 1580
1550 1552 1554 1556 1557 1558 1559 1561 1564 1566 1567 1569 1569 1570 1571 1573 1574 1575 1576 1575 1575 1576 1577 1576 1577 1578 1578 1578 1578 1578 1578 1579 1579 1579 1579 1577 1578 1578 1578 1578 1579 1579 1579
1552 1553 1555 1556 1558 1559 1560 1562 1564 1566 1568 1569 1570 1571 1573 1574 1575 1576 1576 1576 1577 1577 1577 1578 1577 1578 1577 1577 1578 1578 1578 1578 1578 1578 1577 1577 1577 1577 1577 1578 1578 1578 1579
1552 1554 1556 1557 1558 1559 1560 1563 1566 1567 1569 1570 1570 1571 1573 1574 1575 1576 1576 1576 1577 1578 1577 1577 1577 1577 1577 1577 1578 1578 1577 1577 1577 1578 1577 1576 1576 1576 1576 1577 1577 1577 1578
1553 1554 1556 1557 1558 1560 1562 1563 1566 1568 1568 1570 1571 1572 1573 1575 1575 1576 1576 1576 1577 1577 1578 1577 1577 1577 1577 1577 1577 1577 1576 1577 1576 1576 1577 1576 1575 1575 1575 1575 1575 1576 1576
1552 1554 1556 1557 1559 1561 1563 1564 1566 1568 1569 1570 1571 1572 1572 1574 1574 1575 1576 1576 1576 1577 1576 1577 1577 1577 1577 1577 1576 1576 1576 1575 1575 1574 1575 1575 1575 1574 1574 1574 1574 1574 1574
1552 1554 1556 1558 1560 1561 1563 1564 1567 1568 1569 1570 1571 1572 1572 1573 1574 1574 1575 1576 1575 1576 1576 1576 1576 1576 1576 1576 1575 1575 1574 1574 1573 1573 1573 1573 1573 1573 1573 1572 1572 1572 1572
1550 1552 1555 1557 1559 1561 1563 1564 1566 1567 1568 1570 1571 1572 1572 1572 1573 1574 1574 1574 1574 1575 1575 1575 1575 1575 1574 1574 1574 1573 1573 1573 1572 1572 1572 1572 1571 1571 1571 1570 1570 1570 1570
1549 1551 1554 1556 1558 1560 1562 1563 1565 1566 1568 1569 1570 1571 1571 1572 1572 1573 1573 1573 1573 1574 1573 1573 1573 1572 1572 1572 1572 1572 1571 1571 1571 1571 1570 1570 1570 1569 1569 1569 1568 1568 1567
1548 1550 1552 1554 1556 1558 1560 1562 1564 1566 1567 1568 1569 1569 1570 1571 1571 1571 1572 1571 1571 1572 1572 1572 1572 1571 1571 1571 1571 1570 1570 1569 1569 1569 1569 1568 1568 1567 1567 1566 1566 1566 1566
1545 1547 1549 1551 1554 1556 1558 1560 1562 1564 1565 1567 1567 1567 1568 1569 1569 1570 1569 1570 1570 1570 1569 1569 1569 1570 1570 1570 1569 1569 1568 1569 1567 1567 1567 1566 1566 1566 1565 1565 1564 1563 1563
1542 1544 1547 1549 1551 1554 1556 1558 1560 1561 1563 1565 1565 1566 1566 1567 1568 1568 1568 1568 1568 1569 1569 1568 1567 1567 1568 1568 1568 1568 1567 1566 1566 1566 1565 1565 1564 1564 1564 1563 1562 1562 1561
1538 1541 1543 1546 1548 1551 1553 1556 1557 1559 1561 1562 1563 1564 1564 1565 1565 1566 1566 1566 1566 1567 1566 1566 1566 1566 1566 1567 1566 1565 1566 1565 1565 1565 1564 1564 1563 1562 1562 1561 1561 1560 1559
1535 1538 1540 1542 1545 1547 1550 1552 1554 1556 1558 1560 1561 1561 1562 1563 1563 1563 1564 1564 1563 1564 1564 1564 1564 1564 1564 1564 1564 1564 1564 1563 1564 1563 1562 1562 1561 1560 1560 1559 1559 1558 1557
1532 1534 1536 1538 1540 1543 1546 1548 1550 1552 1554 1556 1557 1558 1559 1560 1561 1561 1561 1561 1561 1562 1562 1561 1561 1562 1562 1561 1562 1562 1562 1562 1561 1561 1560 1559 1559 1558 1558 1557 1556 1556 1555